Location: Amarillo Post Office Jordan Station
(35.1907°N, 101.9342°W)
Time: 13:47:49
(UTC+00:00)

Meteor 1-16 Rocket - Pass Details

Date: 24 January 2021
Orbit: 789 x 908 km, 81.2° (Epoch: 04 March)

Event Time Altitude Azimuth Distance (km) Brightness Sun altitude
Rises 12:11:27 0° 193° (SSW) 3,484 7.4 -20.5°
Reaches altitude 10° 12:13:53 10° 195° (SSW) 2,560 6.6 -20.0°
Maximum altitude 12:19:43 70° 279° (W) 959 4.2 -18.8°
Drops below altitude 10° 12:25:39 10° 3° (N) 2,597 6.7 -17.7°
Sets 12:28:09 0° 6° (N) 3,539 7.4 -17.2°
